| time (UTC) | temp F | wind direction | speed MPH | gust MPH | rain 1hr in | rain 24hr in | rain mn in | humidity % | barometer mb |
| 20260505083102 | 55 | 211 | 2.0 | 6.0 | 0.00 | 0.47 | 0.06 | 90 | 1004.3 |
| 20260505081559 | 55 | 180 | 2.0 | 9.0 | 0.00 | 0.47 | 0.06 | 90 | 1004.1 |
| 20260505080053 | 55 | 182 | 4.0 | 8.0 | 0.00 | 0.47 | 0.06 | 89 | 1004.3 |
| 20260505074550 | 55 | 213 | 2.0 | 5.0 | 0.00 | 0.47 | 0.06 | 90 | 1004.5 |
| 20260505073049 | 54 | 200 | 3.0 | 7.0 | 0.00 | 0.47 | 0.06 | 89 | 1004.5 |
| 20260505071550 | 54 | 197 | 1.0 | 7.0 | 0.00 | 0.47 | 0.06 | 89 | 1004.4 |
| 20260505070046 | 55 | 202 | 3.0 | 8.0 | 0.00 | 0.47 | 0.06 | 90 | 1004.0 |
| 20260505064546 | 55 | 205 | 0.0 | 5.0 | 0.00 | 0.47 | 0.06 | 90 | 1003.8 |
| 20260505063042 | 56 | 206 | 4.0 | 8.0 | 0.00 | 0.47 | 0.06 | 90 | 1003.8 |
| 20260505061541 | 56 | 214 | 2.0 | 5.0 | 0.03 | 0.47 | 0.06 | 90 | 1002.9 |
| 20260505060040 | 56 | 218 | 2.0 | 10.0 | 0.09 | 0.47 | 0.06 | 90 | 1002.7 |
| 20260505053036 | 56 | 146 | 3.0 | 5.0 | 0.32 | 0.46 | 0.05 | 89 | 1002.6 |
| 20260505051532 | 57 | 300 | 1.0 | 4.0 | 0.38 | 0.44 | 0.03 | 88 | 1004.0 |
| 20260505041525 | 60 | 355 | 0.0 | 8.0 | 0.03 | 0.06 | 0.06 | 77 | 1003.2 |
| 20260505040023 | 63 | 240 | 6.0 | 12.0 | 0.00 | 0.03 | 0.03 | 70 | 1003.8 |
| 20260505034524 | 66 | 28 | 10.0 | 18.0 | 0.00 | 0.03 | 0.03 | 60 | 1003.0 |
| 20260505033033 | 68 | 192 | 6.0 | 13.0 | 0.01 | 0.03 | 0.03 | 66 | 1001.4 |
| 20260505031523 | 68 | 219 | 7.0 | 13.0 | 0.01 | 0.03 | 0.03 | 63 | 1001.6 |
| 20260505030023 | 69 | 214 | 8.0 | 17.0 | 0.01 | 0.03 | 0.03 | 62 | 1001.4 |
| 20260505024535 | 69 | 205 | 8.0 | 18.0 | 0.01 | 0.03 | 0.03 | 63 | 1001.2 |
| 20260505023033 | 70 | 212 | 6.0 | 13.0 | 0.00 | 0.02 | 0.02 | 57 | 1001.1 |
| 20260505021520 | 70 | 207 | 8.0 | 17.0 | 0.00 | 0.02 | 0.02 | 56 | 1001.3 |
| 20260505020020 | 70 | 206 | 7.0 | 12.0 | 0.00 | 0.02 | 0.02 | 56 | 1001.1 |
| 20260505014532 | 71 | 197 | 7.0 | 16.0 | 0.00 | 0.02 | 0.02 | 55 | 1000.9 |
| 20260505013018 | 71 | 209 | 6.0 | 17.0 | 0.00 | 0.02 | 0.02 | 54 | 1000.6 |
| 20260505011518 | 71 | 159 | 7.0 | 13.0 | 0.00 | 0.02 | 0.02 | 55 | 1000.6 |
| 20260505010020 | 72 | 217 | 6.0 | 17.0 | 0.00 | 0.02 | 0.02 | 54 | 1000.5 |
| 20260505004518 | 72 | 212 | 7.0 | 13.0 | 0.00 | 0.02 | 0.02 | 53 | 1000.4 |
| 20260505003015 | 72 | 223 | 7.0 | 13.0 | 0.00 | 0.02 | 0.02 | 54 | 1000.3 |
| 20260505001515 | 73 | 224 | 7.0 | 13.0 | 0.00 | 0.02 | 0.02 | 53 | 999.9 |
| 20260505000015 | 73 | 192 | 8.0 | 15.0 | 0.00 | 0.02 | 0.02 | 52 | 1000.0 |
| 20260504234513 | 74 | 211 | 10.0 | 19.0 | 0.00 | 0.02 | 0.02 | 50 | 1000.1 |
| 20260504233011 | 75 | 203 | 10.0 | 23.0 | 0.00 | 0.02 | 0.02 | 49 | 1000.3 |
| 20260504231509 | 74 | 232 | 10.0 | 16.0 | 0.00 | 0.02 | 0.02 | 50 | 1000.5 |
| 20260504230008 | 75 | 216 | 11.0 | 18.0 | 0.00 | 0.02 | 0.02 | 48 | 1000.8 |
| 20260504224506 | 76 | 196 | 11.0 | 17.0 | 0.00 | 0.02 | 0.02 | 47 | 1001.0 |
| 20260504223105 | 76 | 164 | 9.0 | 18.0 | 0.00 | 0.02 | 0.02 | 47 | 1001.1 |
| 20260504221504 | 76 | 212 | 12.0 | 21.0 | 0.00 | 0.02 | 0.02 | 47 | 1001.3 |
| 20260504220002 | 76 | 182 | 14.0 | 23.0 | 0.00 | 0.02 | 0.02 | 47 | 1001.5 |
| 20260504214501 | 76 | 195 | 11.0 | 18.0 | 0.00 | 0.02 | 0.02 | 47 | 1001.7 |
| 20260504213100 | 75 | 201 | 14.0 | 21.0 | 0.00 | 0.02 | 0.02 | 47 | 1001.4 |
| 20260504211559 | 75 | 212 | 11.0 | 19.0 | 0.00 | 0.02 | 0.02 | 49 | 1001.5 |
| 20260504210106 | 76 | 211 | 9.0 | 17.0 | 0.00 | 0.02 | 0.02 | 49 | 1001.5 |
| 20260504204616 | 75 | 192 | 14.0 | 18.0 | 0.00 | 0.02 | 0.02 | 50 | 1001.7 |
| 20260504203127 | 75 | 202 | 11.0 | 31.0 | 0.00 | 0.02 | 0.02 | 50 | 1002.0 |
| 20260504201553 | 76 | 200 | 12.0 | 29.0 | 0.00 | 0.02 | 0.02 | 50 | 1002.3 |
| 20260504200050 | 75 | 176 | 12.0 | 17.0 | 0.00 | 0.02 | 0.02 | 57 | 1002.4 |
| 20260504194548 | 74 | 190 | 11.0 | 23.0 | 0.00 | 0.02 | 0.02 | 56 | 1002.6 |
| 20260504193044 | 73 | 199 | 11.0 | 18.0 | 0.00 | 0.02 | 0.02 | 60 | 1002.7 |
| 20260504191543 | 72 | 192 | 12.0 | 18.0 | 0.00 | 0.02 | 0.02 | 61 | 1003.0 |
| 20260504190042 | 72 | 202 | 11.0 | 17.0 | 0.00 | 0.02 | 0.02 | 62 | 1003.1 |
| 20260504184540 | 70 | 211 | 11.0 | 17.0 | 0.00 | 0.02 | 0.02 | 65 | 1003.4 |
| 20260504183039 | 67 | 180 | 4.0 | 8.0 | 0.00 | 0.02 | 0.02 | 75 | 1003.5 |
| 20260504181538 | 65 | 220 | 3.0 | 7.0 | 0.02 | 0.02 | 0.02 | 76 | 1003.5 |
| 20260504180036 | 63 | 213 | 4.0 | 10.0 | 0.02 | 0.02 | 0.02 | 78 | 1003.7 |
| 20260504174538 | 62 | 215 | 5.0 | 13.0 | 0.02 | 0.02 | 0.02 | 78 | 1003.8 |
| 20260504173039 | 62 | 205 | 5.0 | 9.0 | 0.02 | 0.02 | 0.02 | 81 | 1004.0 |
| 20260504171537 | 63 | 250 | 3.0 | 10.0 | 0.00 | 0.00 | 0.00 | 77 | 1004.3 |
| 20260504090138 | 57 | 227 | 4.0 | 7.0 | 0.00 | 0.00 | 0.00 | 74 | 1006.0 |